This is the latest recevied weather packets stored in our database for station/object AC1IX. If no packets are shown the sender has not sent any weather packets the latest 10 day(s).
| Time | Temp. | Humidity | Pressure | Rain* | Wind** | Luminosity | Snow |
|---|---|---|---|---|---|---|---|
| 1778021228 | 16.11° C | 92% | 1009 hPa | 0 mm | - | 13 W/m² | - |
| 1778020927 | 16.67° C | 94% | 1008.8 hPa | 0 mm | - | 4 W/m² | - |
| 1778020624 | 16.67° C | 93% | 1008.9 hPa | 0 mm | - | 6 W/m² | - |
| 1778020320 | 16.67° C | 92% | 1008.9 hPa | 0 mm | - | 5 W/m² | - |
| 1778020016 | 16.67° C | 91% | 1008.8 hPa | 0 mm | - | 10 W/m² | - |
| 1778019712 | 17.22° C | 89% | 1008.5 hPa | 1.78 mm | - | 11 W/m² | - |
| 1778019410 | 17.78° C | 87% | 1008.4 hPa | 1.78 mm | - | 11 W/m² | - |
| 1778019106 | 18.33° C | 82% | 1008.3 hPa | 0 mm | - | 15 W/m² | - |
| 1778018803 | 19.44° C | 79% | 1008.1 hPa | 0 mm | - | 18 W/m² | - |
| 1778018501 | 20.56° C | 68% | 1008 hPa | 0 mm | - | 29 W/m² | - |
| 1778018198 | 21.67° C | 63% | 1007.7 hPa | 0 mm | - | 28 W/m² | - |
| 1778017896 | 23.33° C | 53% | 1007.2 hPa | 0 mm | - | 10 W/m² | - |
| 1778017594 | 24.44° C | 41% | 1006.9 hPa | 0 mm | - | 8 W/m² | - |
| 1778017291 | 24.44° C | 41% | 1006.2 hPa | 0 mm | - | 10 W/m² | - |
| 1778016989 | 25° C | 41% | 1006 hPa | 0 mm | - | 23 W/m² | - |
| 1778016685 | 25° C | 43% | 1006.1 hPa | 0 mm | - | 26 W/m² | - |
| 1778016381 | 25.56° C | 41% | 1006 hPa | 0 mm | - | 58 W/m² | - |
| 1778016079 | 26.11° C | 40% | 1005.8 hPa | 0 mm | - | 75 W/m² | - |
| 1778015775 | 26.67° C | 39% | 1005.8 hPa | 0 mm | - | 143 W/m² | - |
| 1778015472 | 27.22° C | 38% | 1005.6 hPa | 0 mm | - | 243 W/m² | - |
| 1778015169 | 26.67° C | 41% | 1005.7 hPa | 0 mm | - | 343 W/m² | - |
| 1778014866 | 27.22° C | 39% | 1005.3 hPa | 0 mm | - | 310 W/m² | - |
| 1778014564 | 27.22° C | 40% | 1005.4 hPa | 0 mm | - | 321 W/m² | - |
| 1778014261 | 26.67° C | 40% | 1005.4 hPa | 0 mm | - | 372 W/m² | - |
| 1778013958 | 26.11° C | 40% | 1005.5 hPa | 0 mm | - | 150 W/m² | - |
* Rain latest hour (hover to see other rain measurements)
** Current wind speed in m/s (hover to see current wind gust speed)